Regional Weather Roundup
Issued by NWS

Home | Current Version | Previous Version | Graphics & Text | Print | Product List | Glossary On
Versions: 1 2 3 4 5 6 7 8 9 10 11 12 13 14 15 16 17 18 19 20 21 22 23 24 25 26 27 28 29 30 31 32 33 34 35 36 37 38 39 40 41 42 43 44 45 46 47 48 49 50
000
ASUS45 KABQ 281601
RWRNM
WEATHER ROUNDUP FOR NEW MEXICO
NATIONAL WEATHER SERVICE ALBUQUERQUE NM
900 AM MST SUN DEC 28 2014

NOTE: "FAIR" MEANS FEW OR NO CLOUDS BELOW 12,000 FEET AGL WITH NO
       SIGNIFICANT WEATHER OR OBSTRUCTIONS TO VISION.

      THIS PRODUCT IS RELEASED AS TWO VERSIONS.  ONE VERSION NEAR
      THE TOP OF THE HOUR CONTAINING PRELIMINARY DATA FROM ALBUQUERQUE
      AND OTHER STATIONS.  A FINAL VERSION WITH ADDITIONAL DATA IS
      ISSUED ABOUT 10 MINUTES AFTER THE HOUR.

NMZ501-503-504-510>518-281700-
NORTHWEST PLATEAU/NORTHCENTRAL MOUNTAINS

CITY           SKY/WX    TMP DP  RH WIND       PRES   REMARKS
FARMINGTON     SUNNY     11   6  81 E6        30.22R WCI   1
LOS ALAMOS     SUNNY     15   8  71 CALM      30.11R
SANTA FE       SUNNY     19   8  62 N7        30.13R WCI  10
TAOS           MOSUNNY    3   1  92 N3        30.13F
ANGEL FIRE     FAIR     -10 -14  82 CALM      30.04S

$$
NMZ402-403-502-505>509-281700-
WESTCENTRAL MOUNTAINS/SOUTHWEST MOUNTAINS

CITY           SKY/WX    TMP DP  RH WIND       PRES   REMARKS
GALLUP         MOSUNNY    5   0  79 NE5       30.20R WCI  -4
GRANTS         SUNNY     11   7  83 N6        30.20S WCI   2
SILVER CITY    SUNNY     32  12  43 N6        30.24S WCI  26

$$
NMZ407-409-411-412-281700-
SOUTHERN DESERTS

CITY           SKY/WX    TMP DP  RH WIND       PRES   REMARKS
LORDSBURG      FAIR      28  23  80 CALM      30.26R
DEMING         SUNNY     25  19  78 W3        30.25S
HOLLOMAN AFB   SUNNY     22  19  88 S3        30.23F
ALAMOGORDO     FOG       21  19  93 CALM      30.24F VSB<1/4
T OR C         SUNNY     27  10  49 N3        30.23R

$$
NMZ519>523-281700-
CENTRAL VALLEYS/CENTRAL HIGHLANDS

CITY           SKY/WX    TMP DP  RH WIND       PRES   REMARKS
ALBUQUERQUE    MOSUNNY   23  12  62 SW3       30.21S
DOUBLE EAGLE   SUNNY     21   9  58 CALM      30.19S
MORIARTY ARPT  FAIR      22  11  61 N5        30.14S WCI  16
CLINES CORNERS MOSUNNY   17   6  62 NW25G31   30.03S WCI  -1
BELEN          FAIR      22  12  66 CALM      30.22S
SOCORRO        FAIR      22  10  59 N3        30.24S

$$
NMZ524>526-539-540-281700-
SOUTHCENTRAL MOUNTAINS

CITY           SKY/WX    TMP DP  RH WIND       PRES   REMARKS
RUIDOSO        NOT AVBL

$$
NMZ527>531-281700-
NORTHEAST HIGHLANDS/NORTHEAST PLAINS

CITY           SKY/WX    TMP DP  RH WIND       PRES   REMARKS
LAS VEGAS      SUNNY     25   9  50 CALM      29.97F
RATON          MOSUNNY    9   4  80 NE8       29.95F WCI  -3
CLAYTON        SUNNY     32  12  43 W6        29.97F WCI  26

$$
NMZ532>537-281700-
EASTCENTRAL PLAINS

CITY           SKY/WX    TMP DP  RH WIND       PRES   REMARKS
TUCUMCARI      SUNNY     21  17  84 SW3       30.04F
CANNON AFB     SUNNY     29  15  56 W16       30.06F WCI  17
CLOVIS AIRPORT SUNNY     28  18  64 SW15G21   30.06F WCI  17

$$
NMZ028-029-538-281700-
SOUTHEAST PLAINS

CITY           SKY/WX    TMP DP  RH WIND       PRES   REMARKS
ROSWELL        SUNNY     23  18  81 CALM      30.16F
ARTESIA        SUNNY     30  28  93 S5        30.18F WCI  25
CARLSBAD       SUNNY     33  28  81 E7        30.19S WCI  27
HOBBS          SUNNY     32  32 100 SW9       30.20S WCI  24


$$


USA.gov is the U.S. government's official web portal to all federal, state and local government web resources and services.